Regional Weather Roundup
Issued by NWS

Home | Current Version | Previous Version | Text Only | Print | Product List | Glossary Off
Versions: 1 2 3 4 5 6 7 8 9 10 11 12 13 14 15 16 17 18 19 20 21 22 23 24 25 26 27 28 29 30 31 32 33 34 35 36 37 38 39 40 41 42 43 44 45 46 47 48 49 50

000
ASUS43 KIND 192059
RWRIN

WEATHER ROUNDUP FOR INDIANA
NATIONAL WEATHER SERVICE INDIANAPOLIS IN
500 PM EDT FRI SEP 19 2014

NOTE: "FAIR" INDICATES FEW OR NO CLOUDS BELOW 12,000 FEET WITH NO
SIGNIFICANT WEATHER AND/OR OBSTRUCTIONS TO VISIBILITY.

* - STATION DOES NOT REPORT WEATHER SUCH AS PRECIPITATION OR FOG.

+ - STATION NOT QUALITY CONTROLLED BY THE NATIONAL WEATHER SERVICE.
    USE DATA WITH CAUTION...ESPECIALLY DEWPOINT AND RELATIVE
    HUMIDITY OBSERVATIONS.

INZ001>003-010>013-019-020-192200-
NORTHWEST INDIANA

CITY           SKY/WX    TMP DP  RH WIND       PRES   REMARKS
GARY /AIRPORT/ MOSUNNY   75  45  33 SE9       30.05F
KNOX *+        SUNNY     73  44  36 S10       30.07F
VALPARAISO     SUNNY     73  45  36 SE10      30.07F

$$

LMZ046-743>745-192200-
SOUTHERN LAKE MICHIGAN

STATION/POSITION TIME  TEMP WIND        PRES
                       AIR  DIR/SP/G
                 (UTC) (F)  (DEG/KT/KT) (MB)
MICHIGAN CITY    2000   70  120/ 11/ 15   N/A

$$

INZ004-005-014>016-021>024-192200-
NORTH CENTRAL INDIANA

CITY           SKY/WX    TMP DP  RH WIND       PRES   REMARKS
ELKHART        SUNNY     72  46  40 S9        30.09F
GOSHEN         SUNNY     72  49  44 SE13      30.09F
SOUTH BEND     SUNNY     72  46  39 S13G20    30.09F
WARSAW +       SUNNY     70  46  43 SE6       30.10F

$$

INZ006>009-017-018-025>027-192200-
NORTHEAST INDIANA

CITY           SKY/WX    TMP DP  RH WIND       PRES   REMARKS
ANGOLA *+      SUNNY     70  48  46 SE9       30.11F
FORT WAYNE     PTSUNNY   69  48  47 SE8       30.12F

$$

INZ028-029-035-036-043>045-051>053-192200-
WEST CENTRAL INDIANA

CITY           SKY/WX    TMP DP  RH WIND       PRES   REMARKS
GREENCASTLE +  SUNNY     72  50  46 SE10      30.08F
LAFAYETTE      SUNNY     73  48  41 S9        30.07F
TERRE HAUTE    SUNNY     74  50  42 SE12      30.07F

$$

INZ030>032-037>040-046>048-054>057-064-065-192200-
CENTRAL INDIANA

CITY           SKY/WX    TMP DP  RH WIND       PRES   REMARKS
COLUMBUS       SUNNY     73  48  40 E9        30.08F
FRANKFORT +    SUNNY     74  47  38 S5        30.10F
INDIANAPOLIS   MOSUNNY   73  46  38 SE8       30.08F
-EAGLE CREEK   SUNNY     73  46  38 SE5       30.08F
KOKOMO *+      SUNNY     72  48  43 SE7       30.09F
MT COMFORT *+  SUNNY     73  30  20 S5        30.09F
SHELBYVILLE    SUNNY     76  47  35 SE7       30.08F

$$

INZ033-034-041-042-049-050-058-059-192200-
EAST CENTRAL INDIANA

CITY           SKY/WX    TMP DP  RH WIND       PRES   REMARKS
MUNCIE         SUNNY     72  43  35 S8        30.10F

$$

INZ060-061-067>069-081>083-085>088-192200-
SOUTHWEST INDIANA

CITY           SKY/WX    TMP DP  RH WIND       PRES   REMARKS
EVANSVILLE     SUNNY     79  53  40 E9        30.04F

$$

INZ062-063-066-070>080-084-089>092-192200-
SOUTH CENTRAL AND SOUTHEAST INDIANA

CITY           SKY/WX    TMP DP  RH WIND       PRES   REMARKS
BLOOMINGTON    SUNNY     73  49  42 SE7       30.08F
SEYMOUR +      SUNNY     77  52  41 CALM      30.07

$$




USA.gov is the U.S. government's official web portal to all federal, state and local government web resources and services.